CW5439 Weather Reports


Display with metric or nautical units.
time (UTC)temp
F
wind
direction
speed
MPH
gust
MPH
rain 1hr
in
rain 24hr
in
rain mn
in
humidity
%
barometer
mb
20260510234205 44 11 7.0 16.0 0.12 0.12 0.02 88 1011.0
20260510233705 45 72 6.0 13.0 0.12 0.12 0.02 89 1010.8
20260510233205 45 16 6.0 14.0 0.12 0.12 0.02 89 1010.8
20260510232705 45 340 8.0 14.0 0.12 0.12 0.02 88 1010.7
20260510232206 45 313 9.0 14.0 0.12 0.12 0.02 88 1010.6
20260510231705 45 325 8.0 15.0 0.12 0.12 0.02 88 1010.6
20260510230705 46 327 10.0 18.0 0.11 0.11 0.01 86 1010.7
20260510230206 47 327 9.0 18.0 0.09 0.09 0.09 86 1010.6
20260510225705 47 351 7.0 15.0 0.02 0.02 0.02 85 1010.7
20260510225206 47 291 8.0 15.0 0.02 0.02 0.02 85 1010.2
20260510224705 47 254 8.0 14.0 0.00 0.00 0.00 84 1010.1
20260510224205 47 252 7.0 14.0 0.00 0.00 0.00 84 1010.0
20260510223705 47 252 7.0 14.0 0.00 0.00 0.00 83 1009.9
20260510223205 47 259 8.0 14.0 0.00 0.00 0.00 83 1009.9
20260510222705 47 273 8.0 14.0 0.00 0.00 0.00 83 1009.9
20260510222205 47 273 8.0 16.0 0.00 0.00 0.00 84 1010.0
20260510221705 47 244 8.0 16.0 0.00 0.00 0.00 84 1009.9
20260510220705 46 278 8.0 13.0 0.00 0.00 0.00 84 1010.0
20260510220207 46 223 8.0 15.0 0.00 0.00 0.00 84 1010.1
20260510215705 46 257 8.0 15.0 0.00 0.00 0.00 84 1010.1
20260510215206 46 254 7.0 15.0 0.00 0.00 0.00 84 1010.2
20260510214705 46 253 7.0 14.0 0.00 0.00 0.00 83 1010.2
20260510214205 46 264 6.0 14.0 0.00 0.00 0.00 83 1010.2
20260510213706 47 227 6.0 16.0 0.00 0.00 0.00 83 1010.2
20260510213205 47 221 6.0 16.0 0.00 0.00 0.00 83 1010.4
20260510212705 47 210 7.0 16.0 0.00 0.00 0.00 83 1010.3
20260510212206 47 240 7.0 14.0 0.00 0.00 0.00 83 1010.3
20260510211705 47 273 7.0 14.0 0.00 0.00 0.00 82 1010.3
20260510211206 47 250 7.0 14.0 0.00 0.00 0.00 82 1010.4
20260510210704 47 248 7.0 14.0 0.00 0.00 0.00 82 1010.4
20260510210205 47 250 7.0 15.0 0.00 0.00 0.00 82 1010.6
20260510205206 47 263 9.0 15.0 0.00 0.00 0.00 82 1010.5
20260510204706 47 227 8.0 16.0 0.00 0.00 0.00 81 1010.5
20260510204205 47 248 9.0 16.0 0.00 0.00 0.00 81 1010.4
20260510203705 47 232 9.0 16.0 0.00 0.00 0.00 80 1010.5
20260510203206 48 259 9.0 16.0 0.00 0.00 0.00 80 1010.6
20260510201705 48 226 7.0 18.0 0.00 0.00 0.00 79 1010.8
20260510201205 48 237 7.0 18.0 0.00 0.00 0.00 79 1011.0
20260510200705 48 234 8.0 18.0 0.00 0.00 0.00 79 1011.1
20260510200205 48 233 8.0 18.0 0.00 0.00 0.00 78 1011.1
20260510195705 48 254 9.0 18.0 0.00 0.00 0.00 78 1011.1
20260510195205 48 250 10.0 20.0 0.00 0.00 0.00 78 1011.1
20260510194705 48 230 10.0 20.0 0.00 0.00 0.00 77 1011.2
20260510194205 48 190 9.0 20.0 0.00 0.00 0.00 77 1011.3
20260510193705 49 225 9.0 17.0 0.00 0.00 0.00 77 1011.4
20260510192705 49 242 10.0 17.0 0.00 0.00 0.00 76 1011.5
20260510192206 49 260 10.0 16.0 0.00 0.00 0.00 76 1011.5
20260510191705 49 252 10.0 17.0 0.00 0.00 0.00 76 1011.4
20260510190709 49 240 10.0 22.0 0.00 0.00 0.00 76 1011.6
20260510190205 49 249 11.0 22.0 0.00 0.00 0.00 75 1012.0
20260510185705 49 246 11.0 22.0 0.00 0.00 0.00 75 1012.0
20260510185205 49 234 11.0 21.0 0.00 0.00 0.00 75 1012.0
20260510184705 49 259 9.0 15.0 0.00 0.00 0.00 75 1012.0
20260510183705 49 259 10.0 18.0 0.00 0.00 0.00 75 1012.1
20260510183205 49 250 10.0 18.0 0.00 0.00 0.00 75 1012.1
20260510182705 49 244 10.0 18.0 0.00 0.00 0.00 75 1012.1
20260510182206 49 248 9.0 18.0 0.00 0.00 0.00 75 1012.1
20260510181705 49 271 9.0 15.0 0.00 0.00 0.00 75 1012.2
20260510181205 49 223 9.0 15.0 0.00 0.00 0.00 74 1012.3
20260510180705 50 249 9.0 13.0 0.00 0.00 0.00 74 1012.4
20260510180205 50 243 8.0 16.0 0.00 0.00 0.00 74 1012.5
20260510175705 50 254 7.0 16.0 0.00 0.00 0.00 74 1012.5
20260510175205 50 248 9.0 17.0 0.00 0.00 0.00 73 1012.6
20260510174205 50 246 10.0 17.0 0.00 0.00 0.00 72 1012.7
20260510173705 50 247 10.0 20.0 0.00 0.00 0.00 72 1012.9
20260510173207 50 259 10.0 23.0 0.00 0.00 0.00 71 1013.0
20260510172705 51 257 11.0 23.0 0.00 0.00 0.00 71 1013.0
20260510172206 51 276 11.0 23.0 0.00 0.00 0.00 70 1013.1
20260510171704 51 242 11.0 20.0 0.00 0.00 0.00 70 1013.1
20260510171205 51 259 10.0 23.0 0.00 0.00 0.00 69 1013.2
20260510170705 52 271 9.0 24.0 0.00 0.00 0.00 68 1013.3
20260510170205 52 257 10.0 24.0 0.00 0.00 0.00 68 1013.4
20260510165705 52 279 11.0 21.0 0.00 0.00 0.00 67 1013.5
20260510165205 52 227 12.0 21.0 0.00 0.00 0.00 67 1013.5
20260510164705 52 254 14.0 21.0 0.00 0.00 0.00 67 1013.5
20260510164205 53 267 12.0 20.0 0.00 0.00 0.00 67 1013.6
20260510163706 53 252 10.0 20.0 0.00 0.00 0.00 67 1013.6
20260510163205 53 251 10.0 20.0 0.00 0.00 0.00 66 1013.8
20260510162705 53 267 11.0 23.0 0.00 0.00 0.00 66 1013.8
20260510162206 53 271 12.0 23.0 0.00 0.00 0.00 64 1014.0
20260510161705 54 247 12.0 23.0 0.00 0.00 0.00 63 1014.0
20260510161205 54 275 13.0 25.0 0.00 0.00 0.00 63 1014.2
20260510160205 55 256 14.0 25.0 0.00 0.00 0.00 60 1014.3
20260510155205 55 265 11.0 23.0 0.00 0.00 0.00 60 1014.4
20260510154705 55 202 13.0 23.0 0.00 0.00 0.00 60 1014.5
20260510154205 55 247 14.0 25.0 0.00 0.00 0.00 59 1014.6
20260510153705 55 273 12.0 25.0 0.00 0.00 0.00 59 1014.8
20260510153222 55 262 11.0 25.0 0.00 0.00 0.00 57 1014.8
20260510152705 56 254 11.0 21.0 0.00 0.00 0.00 55 1014.9
20260510152205 56 275 12.0 25.0 0.00 0.00 0.00 56 1014.9
20260510150732 55 277 10.0 20.0 0.00 0.00 0.00 55 1015.1
20260510150205 56 229 9.0 16.0 0.00 0.00 0.00 55 1015.3
20260510145705 56 250 9.0 18.0 0.00 0.00 0.00 55 1015.4
20260510145205 56 263 9.0 18.0 0.00 0.00 0.00 55 1015.4
20260510144706 56 265 8.0 18.0 0.00 0.00 0.00 56 1015.6
20260510144205 56 239 8.0 17.0 0.00 0.00 0.00 57 1015.7
20260510143705 56 254 9.0 22.0 0.00 0.00 0.00 53 1015.9
20260510143205 57 226 11.0 22.0 0.00 0.00 0.00 53 1016.0
20260510142206 56 275 11.0 20.0 0.00 0.00 0.00 55 1016.1
20260510141704 55 251 11.0 19.0 0.00 0.00 0.00 54 1016.4
20260510141205 56 275 10.0 19.0 0.00 0.00 0.00 53 1016.4
20260510140705 56 215 9.0 15.0 0.00 0.00 0.00 53 1016.4
20260510140205 56 213 9.0 15.0 0.00 0.00 0.00 53 1016.5
20260510135705 56 248 8.0 15.0 0.00 0.00 0.00 54 1016.6
20260510135206 56 215 8.0 15.0 0.00 0.00 0.00 54 1016.7
20260510134705 56 222 8.0 15.0 0.00 0.00 0.00 53 1016.8
20260510133205 56 216 8.0 19.0 0.00 0.00 0.00 54 1016.9
20260510132706 56 282 9.0 19.0 0.00 0.00 0.00 56 1017.0
20260510132205 56 269 9.0 17.0 0.00 0.00 0.00 54 1017.1
20260510131705 55 269 8.0 17.0 0.00 0.00 0.00 54 1017.3
20260510131205 56 259 9.0 16.0 0.00 0.00 0.00 52 1017.3
20260510130705 56 202 8.0 15.0 0.00 0.00 0.00 53 1017.4
20260510130205 55 251 8.0 15.0 0.00 0.00 0.00 57 1017.5
20260510125705 54 287 8.0 14.0 0.00 0.00 0.00 56 1017.6
20260510124705 55 238 6.0 14.0 0.00 0.00 0.00 56 1017.7
20260510124205 55 279 6.0 12.0 0.00 0.00 0.00 55 1017.7
20260510123705 55 254 7.0 12.0 0.00 0.00 0.00 55 1017.8
20260510122705 56 216 5.0 13.0 0.00 0.00 0.00 54 1018.1
20260510122206 57 235 6.0 13.0 0.00 0.00 0.00 52 1018.2
20260510121704 58 263 6.0 15.0 0.00 0.00 0.00 52 1018.2
20260510120705 55 290 8.0 15.0 0.00 0.00 0.00 55 1018.4
20260510115705 56 281 6.0 13.0 0.00 0.00 0.00 49 1018.4
20260510115205 58 252 7.0 13.0 0.00 0.00 0.00 47 1018.5
20260510114705 57 304 6.0 13.0 0.00 0.00 0.00 48 1018.6
20260510114205 58 259 5.0 11.0 0.00 0.00 0.00 49 1018.6
20260510113705 59 251 6.0 12.0 0.00 0.00 0.00 49 1018.6
20260510113205 57 230 7.0 16.0 0.00 0.00 0.00 51 1018.7
20260510112705 57 0 7.0 16.0 0.00 0.00 0.00 52 1018.8
20260510112206 57 232 7.0 16.0 0.00 0.00 0.00 50 1018.9
20260510111705 56 214 7.0 14.0 0.00 0.00 0.00 48 1018.9
20260510111205 56 258 7.0 14.0 0.00 0.00 0.00 53 1019.0
20260510110705 56 246 6.0 14.0 0.00 0.00 0.00 46 1019.1
20260510110205 57 244 7.0 14.0 0.00 0.00 0.00 43 1019.2
20260510105706 56 232 7.0 13.0 0.00 0.00 0.00 43 1019.2
20260510104705 57 279 6.0 13.0 0.00 0.00 0.00 49 1019.4
20260510104205 56 290 7.0 13.0 0.00 0.00 0.00 48 1019.5
20260510103704 55 291 7.0 13.0 0.00 0.00 0.00 48 1019.5
20260510103205 56 271 7.0 18.0 0.00 0.00 0.00 50 1019.8
20260510102705 55 259 7.0 18.0 0.00 0.00 0.00 53 1019.7
20260510102205 54 252 7.0 18.0 0.00 0.00 0.00 57 1019.8
20260510101705 55 237 6.0 12.0 0.00 0.00 0.00 54 1019.7
20260510101205 54 0 6.0 12.0 0.00 0.00 0.00 55 1019.8
20260510100705 55 275 6.0 12.0 0.00 0.00 0.00 53 1019.9
20260510100205 54 226 5.0 12.0 0.00 0.00 0.00 57 1019.9
20260510095705 54 251 5.0 12.0 0.00 0.00 0.00 58 1020.0
20260510095206 54 223 5.0 12.0 0.00 0.00 0.00 64 1020.1
20260510094705 53 240 6.0 12.0 0.00 0.00 0.00 62 1020.2
20260510094206 53 233 6.0 12.0 0.00 0.00 0.00 63 1020.3
20260510093707 53 226 6.0 17.0 0.00 0.00 0.00 62 1020.4
20260510093205 53 264 7.0 17.0 0.00 0.00 0.00 66 1020.5
20260510092705 52 274 7.0 13.0 0.00 0.00 0.00 65 1020.5
20260510092206 52 249 7.0 13.0 0.00 0.00 0.00 65 1020.4
20260510091705 52 251 7.0 12.0 0.00 0.00 0.00 67 1020.6
20260510091205 52 247 7.0 12.0 0.00 0.00 0.00 65 1020.7
20260510090205 52 238 7.0 13.0 0.00 0.00 0.00 68 1020.9
20260510085705 51 226 7.0 14.0 0.00 0.00 0.00 69 1020.9
20260510085206 51 253 7.0 14.0 0.00 0.00 0.00 70 1020.9
20260510084705 52 273 6.0 14.0 0.00 0.00 0.00 70 1021.0
20260510084205 51 216 6.0 12.0 0.00 0.00 0.00 73 1021.1
20260510083705 51 247 6.0 11.0 0.00 0.00 0.00 70 1021.1
20260510083205 51 264 6.0 11.0 0.00 0.00 0.00 72 1021.2
20260510082706 51 257 6.0 12.0 0.00 0.00 0.00 71 1021.2
20260510082205 50 250 5.0 12.0 0.00 0.00 0.00 74 1021.2
20260510081705 50 244 6.0 12.0 0.00 0.00 0.00 75 1021.4
20260510081205 50 227 6.0 12.0 0.00 0.00 0.00 75 1021.4
20260510080705 49 250 5.0 10.0 0.00 0.00 0.00 77 1021.5
20260510080205 49 226 5.0 10.0 0.00 0.00 0.00 75 1021.6
20260510075705 49 236 4.0 10.0 0.00 0.00 0.00 75 1021.7
20260510075205 49 260 4.0 10.0 0.00 0.00 0.00 76 1021.6
20260510074704 49 259 4.0 10.0 0.00 0.00 0.00 78 1021.7
20260510074205 49 265 5.0 10.0 0.00 0.00 0.00 80 1021.8
20260510073205 48 259 5.0 9.0 0.00 0.01 0.00 79 1021.8
20260510072706 48 230 5.0 9.0 0.00 0.01 0.00 80 1021.9
20260510072206 48 261 4.0 9.0 0.00 0.01 0.00 81 1022.0
20260510070709 47 254 4.0 7.0 0.00 0.01 0.00 84 1022.1
20260510070205 46 245 3.0 7.0 0.00 0.01 0.00 85 1022.1
20260510065705 46 265 3.0 5.0 0.00 0.01 0.00 88 1022.1
20260510065206 45 261 3.0 5.0 0.00 0.01 0.00 90 1022.2
20260510064705 44 286 2.0 5.0 0.00 0.01 0.00 91 1022.3
20260510063708 42 225 2.0 3.0 0.00 0.01 0.00 92 1022.3
20260510063205 41 235 2.0 4.0 0.00 0.01 0.00 93 1022.4
20260510062705 40 244 1.0 4.0 0.00 0.01 0.00 93 1022.4
20260510061705 39 237 1.0 4.0 0.00 0.01 0.00 93 1022.5
20260510061205 38 224 2.0 4.0 0.00 0.01 0.00 93 1022.6
20260510060705 38 224 2.0 4.0 0.00 0.01 0.00 93 1022.6
20260510060205 38 219 3.0 4.0 0.00 0.01 0.00 93 1022.6
20260510055705 38 215 3.0 4.0 0.00 0.01 0.00 93 1022.6
20260510055205 37 223 3.0 4.0 0.00 0.01 0.00 93 1022.6
20260510054706 37 215 3.0 4.0 0.00 0.01 0.00 92 1022.7
20260510054205 37 200 3.0 4.0 0.00 0.01 0.00 92 1022.8
20260510053206 37 205 2.0 2.0 0.00 0.01 0.00 92 1022.8
20260510052205 37 207 1.0 2.0 0.00 0.01 0.00 92 1022.8
20260510051705 37 207 1.0 2.0 0.00 0.01 0.00 92 1022.8
20260510051205 37 207 1.0 2.0 0.00 0.01 0.00 92 1022.9
20260510050728 37 207 1.0 2.0 0.00 0.01 0.00 92 1022.9
20260510050205 37 195 1.0 2.0 0.00 0.01 0.00 92 1022.8
20260510045705 37 195 0.0 2.0 0.00 0.01 0.00 92 1022.8
20260510045205 37 195 0.0 2.0 0.00 0.01 0.00 92 1022.8
20260510044705 37 195 1.0 2.0 0.00 0.01 0.00 92 1022.8
20260510044205 37 195 0.0 2.0 0.00 0.01 0.00 92 1022.8
20260510043205 37 195 1.0 4.0 0.00 0.01 0.00 92 1022.9
20260510042705 37 195 2.0 4.0 0.00 0.01 0.00 92 1022.9
20260510042206 37 195 2.0 4.0 0.00 0.02 0.00 92 1022.9
20260510041705 37 221 2.0 4.0 0.00 0.02 0.00 92 1022.9
20260510041205 37 219 3.0 4.0 0.00 0.02 0.00 92 1023.0
20260510040205 37 225 2.0 3.0 0.00 0.02 0.00 92 1022.9
20260510035206 37 225 1.0 5.0 0.00 0.02 0.00 92 1023.0
20260510034704 37 234 3.0 6.0 0.00 0.02 0.00 92 1023.0
20260510034205 37 215 3.0 6.0 0.00 0.02 0.00 92 1023.0
20260510033705 37 221 3.0 5.0 0.00 0.02 0.00 92 1023.0
20260510032205 36 204 4.0 5.0 0.00 0.02 0.00 92 1023.1
20260510031705 36 225 3.0 5.0 0.00 0.02 0.00 92 1023.3
20260510031205 36 214 2.0 4.0 0.00 0.02 0.00 91 1023.4
20260510030704 36 215 1.0 3.0 0.00 0.02 0.00 91 1023.4
20260510030211 36 235 1.0 2.0 0.00 0.02 0.00 91 1023.4
20260510025705 36 263 1.0 3.0 0.00 0.02 0.00 91 1023.4
20260510025206 36 263 1.0 3.0 0.00 0.02 0.00 91 1023.4
20260510024705 36 263 1.0 3.0 0.00 0.02 0.00 91 1023.4
20260510024206 36 263 1.0 3.0 0.00 0.02 0.00 91 1023.4
20260510023705 36 246 1.0 3.0 0.00 0.02 0.00 91 1023.4
20260510023205 36 246 1.0 3.0 0.00 0.02 0.00 91 1023.4
20260510022706 36 246 1.0 2.0 0.00 0.02 0.00 91 1023.4
20260510021705 36 256 0.0 2.0 0.00 0.02 0.00 91 1023.5
20260510021205 36 256 1.0 2.0 0.00 0.02 0.00 91 1023.4
20260510020705 36 256 1.0 3.0 0.00 0.02 0.00 91 1023.4
20260510020206 36 246 1.0 3.0 0.00 0.02 0.00 91 1023.4
20260510015705 36 246 2.0 3.0 0.00 0.02 0.00 91 1023.4
20260510015206 36 246 1.0 2.0 0.00 0.02 0.00 91 1023.4
20260510013205 36 279 1.0 4.0 0.00 0.02 0.00 90 1023.5
20260510012704 37 184 2.0 4.0 0.00 0.02 0.00 90 1023.5
20260510011705 37 261 2.0 3.0 0.00 0.02 0.00 90 1023.6
20260510010705 37 261 1.0 3.0 0.00 0.02 0.00 90 1023.7
20260510010205 37 261 1.0 3.0 0.00 0.02 0.00 89 1023.8
20260510005207 38 261 0.0 2.0 0.00 0.02 0.00 89 1023.8
20260510004705 38 261 1.0 2.0 0.00 0.02 0.00 89 1023.8
20260510004206 38 261 1.0 2.0 0.00 0.02 0.00 89 1023.8
20260510003705 38 261 1.0 3.0 0.00 0.02 0.00 89 1023.8
20260510003205 38 261 1.0 3.0 0.00 0.02 0.00 89 1023.8
20260510002705 38 261 1.0 3.0 0.00 0.02 0.00 89 1023.8
20260510002206 38 261 1.0 2.0 0.00 0.02 0.00 89 1023.9
20260510001221 38 261 1.0 3.0 0.00 0.02 0.00 88 1024.0
20260509235705 38 261 1.0 3.0 0.00 0.02 0.00 88 1024.1
20260509235206 38 261 1.0 2.0 0.00 0.02 0.00 88 1024.2
20260509234705 38 261 1.0 2.0 0.00 0.02 0.00 87 1024.2